Weather History for Coffeyville, KS

Change the Weather History Date:

Sunday, February 3, 2013

  Actual Average Record
Temperature  
Mean Temperature 45 °F -  
Max Temperature 55 °F 45 °F 59 °F (2000)
Min Temperature 35 °F 25 °F -11 °F (2011)
Degree Days  
Heating Degree Days 20    
Moisture  
Dew Point 26 °F    
Average Humidity 49    
Maximum Humidity 70    
Minimum Humidity 30    
Precipitation  
Precipitation 0.00 in - - ()
Sea Level Pressure  
Sea Level Pressure 30.17 in    
Wind  
Wind Speed 8 mph (South)    
Max Wind Speed 13 mph    
Max Gust Speed -    
Visibility 10 miles    
Events      
Averages and records for this station are not official NWS values.
T = Trace of Precipitation, MM = Missing Value Source: NWS Daily Summary

Daily Weather History Graph

Daily Weather History Graph

Search for Another Location

Airport:

Trip Planner

Search our weather history database for the weather conditions in past years. The results will help you decide how hot, cold, wet, or windy it might be!

Date:

Astronomy

Feb. 03, 2013 Rise Set
Actual Time 7:23 AM CST 5:49 PM CST
Civil Twilight 6:55 AM CST 6:17 PM CST
Nautical Twilight 6:24 AM CST 6:47 PM CST
Astronomical Twilight 5:54 AM CST 7:18 PM CST
Moon 12:51 AM CST (2/3) 11:28 AM CST (2/3)
Length of Visible Light 11h 21m
Length of Day
10h 26m
Waning Gibbous, 48% of the Moon is Illuminated
Feb 3
Waning Gibbous
Feb 10
New
Feb 17
First Quarter
Feb 25
Full
Mar 4
Last Quarter

Hourly Weather History & Observations

Time (CST) Temp. Windchill Dew Point Humidity Pressure Visibility Wind Dir Wind Speed Gust Speed Precip Events Conditions
12:52 AM 46.0 °F 40.6 °F 27.0 °F 47% 30.22 in 10.0 mi West 11.5 mph - N/A   Clear
1:52 AM 43.0 °F 38.8 °F 27.0 °F 53% 30.24 in 10.0 mi WNW 6.9 mph - N/A   Clear
2:52 AM 41.0 °F 36.4 °F 26.1 °F 55% 30.25 in 10.0 mi WNW 6.9 mph - N/A   Clear
3:52 AM 39.0 °F 34.8 °F 26.1 °F 60% 30.25 in 10.0 mi NW 5.8 mph - N/A   Clear
4:52 AM 37.9 °F 32.7 °F 26.1 °F 62% 30.27 in 10.0 mi NW 6.9 mph - N/A   Clear
5:52 AM 36.0 °F 29.0 °F 25.0 °F 64% 30.28 in 10.0 mi North 9.2 mph - N/A   Clear
6:52 AM 35.1 °F 32.2 °F 25.0 °F 67% 30.30 in 10.0 mi WNW 3.5 mph - N/A   Clear
7:52 AM 35.1 °F 31.0 °F 26.1 °F 70% 30.32 in 10.0 mi North 4.6 mph - N/A   Clear
8:52 AM 39.9 °F 35.8 °F 27.0 °F 60% 30.32 in 10.0 mi North 5.8 mph - N/A   Clear
9:52 AM 43.0 °F 38.2 °F 28.0 °F 56% 30.32 in 10.0 mi NNE 8.1 mph - N/A   Clear
10:52 AM 46.0 °F 41.9 °F 26.1 °F 46% 30.31 in 10.0 mi NE 8.1 mph - N/A   Clear
11:52 AM 46.9 °F - 25.0 °F 42% 30.28 in 10.0 mi Variable 5.8 mph - N/A   Clear
12:52 PM 50.0 °F - 25.0 °F 38% 30.24 in 10.0 mi ESE 6.9 mph - N/A   Clear
1:52 PM 53.1 °F - 21.9 °F 30% 30.19 in 10.0 mi South 11.5 mph - N/A   Clear
2:52 PM 55.0 °F - 25.0 °F 31% 30.14 in 10.0 mi SSE 12.7 mph - N/A   Clear
3:52 PM 54.0 °F - 25.0 °F 33% 30.11 in 10.0 mi SSE 12.7 mph - N/A   Clear
4:52 PM 54.0 °F - 25.0 °F 33% 30.09 in 10.0 mi South 10.4 mph - N/A   Clear
5:52 PM 48.0 °F - 25.0 °F 41% 30.07 in 10.0 mi South 6.9 mph - N/A   Clear
6:52 PM 46.0 °F 41.4 °F 26.1 °F 46% 30.05 in 10.0 mi South 9.2 mph - N/A   Clear
7:52 PM 45.0 °F 41.8 °F 27.0 °F 49% 30.03 in 10.0 mi SSE 5.8 mph - N/A   Clear
8:52 PM 46.0 °F 41.9 °F 27.0 °F 47% 30.00 in 10.0 mi SSE 8.1 mph - N/A   Clear
9:52 PM 45.0 °F 41.2 °F 28.0 °F 52% 29.97 in 10.0 mi SSE 6.9 mph - N/A   Clear
10:52 PM 44.1 °F 40.8 °F 28.9 °F 55% 29.96 in 10.0 mi SE 5.8 mph - N/A   Clear
11:52 PM 46.0 °F 42.5 °F 28.9 °F 51% 29.93 in 10.0 mi SSE 6.9 mph - N/A   Clear